Location: *
(43.9229°N, 10.3914°E)
Time: 20:34:55
(UTC+00:00)

Daily predictions for brighter satellites

Satellite Brightness Start Highest point End
(mag) Time Altitude Azimuth Time Altitude Azimuth Time Altitude Azimuth
Radarsat Rocket 4.4 16:38:05 10° S 16:44:17 73° WSW 16:50:09 10° NNW
Cosmos 1953 Rocket 4.5 16:46:26 10° NNE 16:50:13 27° ENE 16:54:01 10° SE
COSMOS 2487 2.4 16:47:44 10° NNW 16:51:08 58° ENE 16:54:31 10° SSE
Aureole 1 Rocket 3.9 16:48:34 10° NW 16:51:22 37° WSW 16:54:16 10° S
Meteor 1-11 4.4 16:45:50 10° N 16:51:25 52° ENE 16:57:01 10° SSE
Cosmos 1741 Rocket 4.0 16:46:20 10° NNW 16:51:36 73° ENE 16:56:48 10° SSE
Envisat 4.0 16:48:30 10° S 16:53:28 54° W 16:58:26 10° NNW
Cosmos 1300 3.6 16:51:14 10° SSE 16:54:28 28° E 16:57:46 10° NNE
FengYun 1-2 T 4.3 16:50:03 10° SSE 16:55:41 71° ENE 17:01:19 10° N
NOAA 11 4.2 16:52:00 10° SSE 16:57:22 65° ENE 17:02:46 10° N
BREEZE-M R/B 3.8 16:56:56 10° WNW 17:00:13 44° N 17:06:22 10° ENE
Feng Yun 1-1 Rocket 4.4 16:55:06 10° SSE 17:00:52 62° ENE 17:06:43 10° N
Helios 1A Rocket 3.8 16:57:45 10° SE 17:01:21 29° ENE 17:04:56 10° N
Cosmos 2369 Rocket 4.3 17:03:58 10° WSW 17:08:34 25° NW 17:13:13 10° N
Cosmos 1850 Rocket 4.3 17:03:27 10° NNW 17:08:46 78° WSW 17:14:04 10° SSE
Cosmos 1939 Rocket 3.0 17:05:26 10° SSE 17:09:17 49° ENE 17:13:06 10° N
Cosmos 2297 Rocket 3.1 17:06:04 10° N 17:10:57 29° NE 17:15:47 10° ESE
PSLV R/B 4.4 17:07:23 10° NNE 17:11:21 41° E 17:15:16 10° S
COSMO-SKYMED 1 2.7 17:10:25 10° NNE 17:14:42 55° E 17:18:57 10° S
Cosmos 1452 Rocket 4.5 17:10:32 10° SW 17:15:38 50° WNW 17:20:46 10° N
Okean O Rocket 3.0 17:11:59 10° S 17:16:09 43° W 17:20:20 10° NNW
Aureole 3 Rocket 3.6 17:14:04 10° SSE 17:17:19 32° E 17:21:28 10° NNE
Cosmos 1689 Rocket 2.1 17:14:37 10° NNE 17:17:27 50° E 17:20:15 10° S
H-2A R/B 3.1 17:14:40 10° ESE 17:19:07 27° ENE 17:23:36 10° N
MOS 1 Rocket 4.4 17:17:06 10° NE 17:20:45 22° E 17:24:32 10° SE
Cosmos 2058 4.4 17:19:16 10° NNE 17:21:44 16° ENE 17:21:44 16° ENE
H-2A R/B 4.5 17:18:35 10° NNW 17:21:54 23° WNW 17:25:10 10° WSW
IRS-1C Rocket 4.0 17:18:57 10° SSE 17:24:11 76° ENE 17:29:29 10° NNW
CZ-4 R/B 1.6 17:23:18 10° SE 17:27:00 41° ENE 17:30:40 10° N
Cosmos 1340 3.4 17:23:53 10° N 17:27:18 31° ENE 17:30:41 10° SE
Cosmos 1553 Rocket 4.3 17:22:52 10° SSE 17:28:47 42° E 17:34:39 10° NNE
Cosmos 1825 Rocket 3.7 17:24:38 10° N 17:29:07 78° W 17:33:31 10° S
ERS-2 3.8 17:25:58 10° N 17:29:18 35° WNW 17:32:38 10° SW
YAOGAN 1 2.9 17:26:43 10° SE 17:30:46 41° ENE 17:34:52 10° N
Lacrosse 5 3.7 17:31:04 10° WNW 17:34:56 21° NNW 17:38:48 10° NE
Cosmos 2219 3.5 17:31:02 10° NNW 17:36:35 45° ENE 17:41:21 14° SE
Meteor 2-21 Rocket 4.5 17:30:40 10° N 17:36:53 86° W 17:43:01 10° S
Meteor 2-8 Rocket 4.4 17:33:47 10° S 17:39:45 60° E 17:45:47 10° NNE
CZ-4B R/B 3.7 17:37:54 10° NNW 17:40:39 25° WNW 17:43:19 10° SW
Cosmos 1400 Rocket 2.8 17:37:26 10° S 17:41:28 58° E 17:45:32 10° NNE
Geosat 4.0 17:38:13 10° NE 17:43:11 57° ESE 17:48:07 10° SSW
Cosmos 44 3.0 17:39:10 10° SSW 17:43:36 79° ESE 17:47:38 14° NE
Okean-O 2.5 17:39:38 10° SSE 17:44:02 75° ENE 17:48:29 10° N
Cosmos 1726 Rocket 3.7 17:40:10 10° SSW 17:44:29 75° W 17:48:53 10° N
USA 305 4.4 17:41:51 10° NW 17:45:22 24° N 17:46:51 20° NE
USA 306 4.4 17:48:07 10° NW 17:51:39 24° NNE 17:52:49 21° NE
Cosmos 1745 Rocket 4.2 17:49:10 10° N 17:55:15 49° ENE 18:01:21 10° SSE
SL-08 R/B 4.4 17:50:41 10° N 17:56:51 69° E 18:02:57 10° SSE
Aureole 3 2.8 17:53:58 10° SSW 17:57:22 77° W 18:00:25 10° N
FALCON 9 DEB 2.7 17:56:33 10° SW 17:59:46 77° SE 17:59:55 74° ESE
Meteor 2-1 Rocket 4.4 17:55:18 10° SSE 18:00:28 42° E 18:05:39 10° NNE
ATLAS 5 CENTAUR R/B 4.4 18:05:12 10° NNW 18:05:45 10° NNW 18:06:19 10° N
CZ-2C R/B 3.3 18:00:55 10° SSE 18:06:45 89° ENE 18:12:30 10° NNW
FALCON 9 DEB 2.9 18:04:12 10° SW 18:07:15 80° W 18:07:15 80° W
SL-4 R/B 3.3 18:04:30 10° WNW 18:07:31 24° N 18:08:01 23° NNE
Cosmos 292 Rocket 4.5 18:03:43 10° SW 18:08:23 54° WNW 18:13:08 10° NNE
ARGOS 3.2 18:09:09 30° SE 18:11:36 54° ENE 18:16:53 10° N
NOSS 3-3 (A) 4.2 18:08:29 10° S 18:13:46 40° ESE 18:14:04 40° ESE
NOSS 3-3 (C) 4.2 18:08:33 10° S 18:13:53 40° ESE 18:14:12 40° ESE
Cosmos 1346 Rocket 3.5 18:10:03 10° N 18:12:50 39° NNE 18:12:50 39° NNE
Meteor 2-10 Rocket 3.4 18:09:26 10° S 18:14:47 65° E 18:19:56 10° NNE
Meteor 2-15 4.3 18:08:46 10° S 18:14:52 74° E 18:21:01 10° NNE
Cosmos 2227 Rocket 2.1 18:09:16 10° NNW 18:14:55 68° ENE 18:17:08 37° SE
FALCON 9 DEB 3.4 18:12:12 10° WSW 18:15:00 61° W 18:15:00 61° W
Cosmos 1386 Rocket 4.4 18:09:09 10° N 18:15:33 66° E 18:21:51 10° SSE
SeaSat 1 2.4 18:14:53 48° ESE 18:16:02 61° ENE 18:20:55 10° NNW
Cosmos 1892 2.6 18:14:45 10° N 18:18:39 87° W 18:19:18 61° S
USA 215 3.8 18:17:28 34° ENE 18:19:33 43° NNE 18:25:39 10° NW
Cosmos 1656 3.5 18:16:31 10° SSW 18:22:03 86° ESE 18:26:21 18° NNE
CSL-04 Rocket 3.7 18:18:55 10° SSE 18:24:29 87° WSW 18:30:04 10° NNW
Cosmos 1709 Rocket 4.2 18:19:18 10° N 18:25:27 48° ENE 18:25:51 47° E
Cosmos 2058 Rocket 4.2 18:21:18 10° SSW 18:25:34 44° WNW 18:29:53 10° N
Cosmos 2263 Rocket 4.1 18:22:03 10° N 18:24:13 16° NNE 18:24:13 16° NNE
Cosmos 968 Rocket 3.3 18:20:35 10° NNW 18:25:50 76° ENE 18:26:57 55° SE
ATLAS 2AS CENTAUR R/B 3.9 18:20:26 10° NNW 18:26:39 26° NNE 18:27:53 25° NE
Cosmos 1486 Rocket 3.9 18:26:56 10° NNW 18:32:19 90° NE 18:33:46 50° SSE
USA 307 4.3 18:29:49 10° NW 18:32:53 29° N 18:32:53 29° N
Cosmos 1697 Rocket 2.9 18:28:20 10° S 18:32:53 51° SSE 18:32:53 51° SSE
USA 308 4.3 18:34:34 10° NW 18:37:27 29° N 18:37:27 29° N
GEOS 3 Rocket 4.0 18:36:45 34° S 18:39:00 61° SW 18:44:21 10° NW
Cosmos 883 Rocket 4.3 18:35:20 10° S 18:41:26 67° E 18:47:32 10° NNE
Cosmos 1503 Rocket 4.3 18:36:20 10° NNW 18:40:29 51° NNE 18:40:29 51° NNE
S3M 4.0 18:36:29 10° SSW 18:42:35 76° W 18:48:45 10° N
Milstar 3 4.2 18:46:11 10° SW 18:51:21 23° S 18:51:54 23° S
Cosmos 2297 Rocket 3.0 18:49:47 10° NW 18:55:14 49° WSW 18:57:46 29° SSW
H-2A R/B 3.1 18:53:08 10° S 18:58:16 45° W 19:03:29 10° NNW
Cosmos 2058 4.4 18:55:09 10° NNW 18:57:58 34° NW 18:57:58 34° NW
CZ-4 R/B 4.3 18:59:53 10° SW 19:02:13 15° W 19:04:32 10° NW
Lacrosse 5 4.0 19:15:49 10° NW 19:18:09 18° N 19:18:09 18° N
BREEZE-M R/B 4.4 19:18:39 10° WNW 19:23:15 66° N 19:23:15 66° N
Atlas Centaur 2 4.3 19:26:14 10° SW 19:31:14 26° SSW 19:31:14 26° SSW
CZ-4C R/B 4.2 19:33:15 10° NNW 19:37:16 27° N 19:37:16 27° N
Cosmos 2227 Rocket 4.4 19:54:37 10° WNW 19:58:21 18° W 19:59:01 18° WSW
USA 215 4.3 20:04:50 41° WNW 20:04:50 41° WNW 20:08:51 10° NW
ATLAS 2AS CENTAUR R/B 4.1 20:11:22 10° NW 20:15:19 34° NNW 20:15:19 34° NNW
